[[{"header":{"parameterUnit":"m.s-1","parameterCategory":2,"la1":30.2991,"la2":30.254,"lo1":-89.0895,"lo2":-89.0444,"dy":0.0017,"dx":0.0017,"nx":28,"ny":28,"refTime":"2023-10-07T03:00:00:Z","depth":"0","parameterNumber":2,"parameterNumberName":"U-component_of_CURRENTS"},"data":[0,0,0,0,0,0,0,0,0,0,0,0,0,0,0,0,0,0,0,0,0,0,0,0,0,0,0,0,0,0,0,0,0,0,0,0,0,0,0,0,0,0,0,0,0,0,0,0,0,0,0,0,0,0,0,0,0,0,0.3982,0.3981,0,0.3964,0.3964,0.3964,0.4055,0.4057,0.4059,0.4061,0.4017,0.4014,0.401,0,0,0,0,0,0,0,0,0,0,0,0,0,0.3998,0.3999,0.3982,0.3981,0.398,0.3964,0.3964,0.3964,0.4054,0.4057,0.406,0.4062,0.4018,0.4014,0.401,0,0,0,0,0,0,0,0,0,0,0,0,0,0.3991,0.3999,0.3982,0.402,0.4023,0.3964,0.3964,0.3964,0.4054,0.4057,0.406,0.4063,0.4019,0.4014,0.401,0.3913,0,0,0.3995,0.3993,0,0,0,0,0,0,0,0,0.3992,0.3991,0.4015,0.4017,0.402,0.4011,0.3953,0.3944,0.4053,0.4047,0.4061,0.4065,0.4007,0.4003,0.3999,0.3911,0.3909,0.3994,0.3991,0.3989,0.3988,0,0,0,0,0,0,0,0.3992,0.3992,0.3979,0.4014,0.4017,0.4005,0.4009,0.3952,0.4011,0.4048,0.4053,0.4043,0.4009,0.4004,0.3999,0.3909,0.3994,0.399,0.3987,0.3985,0.3907,0.3908,0,0,0,0,0,0,0.3987,0.3992,0.398,0.3978,0.4009,0.4002,0.4007,0.4014,0.4013,0.4015,0.404,0.4047,0.401,0.4004,0.3997,0.398,0.3989,0.3985,0.3982,0.3906,0.3907,0.3908,0,0,0,0,0,0,0.3987,0.3986,0.398,0.398,0.3978,0.3999,0.4006,0.4012,0.4014,0.4006,0.401,0.4036,0.4013,0.4004,0.3947,0.3976,0.3983,0.3978,0.3905,0.3907,0.3908,0.3883,0,0,0,0,0,0,0.3988,0.3987,0.3981,0.398,0.3978,0.3922,0.4002,0.4009,0.4,0.4009,0.4002,0.4003,0.4015,0.3954,0.3942,0.3969,0.3974,0.3904,0.3906,0.3907,0.3882,0.3883,0.3883,0,0,0,0,0,0.3989,0.3962,0.3982,0.3979,0.3974,0.3918,0.3915,0.3944,0.3996,0.3965,0.3981,0.4003,0.396,0.3947,0.3934,0.3961,0.3903,0.3905,0.3907,0.3882,0.3883,0.3883,0,0,0,0,0,0,0.3953,0.3967,0.399,0.3967,0.3935,0.3932,0.3903,0.3929,0.3917,0.3942,0.3958,0.3954,0.3926,0.3934,0.3921,0.3952,0.3956,0.3955,0.3942,0.3942,0.3943,0.3924,0.397,0,0,0,0,0,0.3942,0.3931,0.3929,0.3897,0.3887,0.3895,0.3878,0.3901,0.3892,0.3894,0.3888,0.391,0.3918,0.3921,0.3903,0.3877,0.387,0.3908,0.3909,0.3909,0.3889,0.39,0.3899,0.3914,0.3914,0.3914,0,0,0.3903,0.3917,0.3902,0.3888,0.3876,0.3857,0.3894,0.3862,0.3873,0.3882,0.3873,0.3871,0.3903,0.3898,0.3894,0.3913,0.3899,0.3911,0.3911,0.389,0.3902,0.39,0.3898,0.3916,0.3915,0.3915,0,0,0.3839,0.3846,0.383,0.3806,0.3793,0.3805,0.3794,0.3785,0.3811,0.3781,0.3828,0.3826,0.3816,0.3857,0.3883,0.3864,0.388,0.3896,0.3896,0.3908,0.3906,0.3904,0.3877,0.3873,0.3922,0.3922,0.3922,0,0.3796,0.3785,0.38,0.3783,0.3759,0.3786,0.3756,0.3778,0.3755,0.3767,0.3779,0.3804,0.3807,0.3855,0.3867,0.3863,0.386,0.3889,0.3906,0.3904,0.3902,0.3875,0.3871,0.3921,0.3921,0.3921,0.3921,0,0.374,0.3717,0.3688,0.3702,0.3685,0.3634,0.3677,0.3676,0.3714,0.3741,0.3757,0.3764,0.3791,0.382,0.3832,0.3856,0.3851,0.3881,0.3896,0.3899,0.3871,0.3867,0.392,0.392,0.392,0.3921,0,0,0.3647,0.3652,0.3632,0.3624,0.3631,0.3606,0.3639,0.3655,0.3681,0.3701,0.3718,0.3759,0.3772,0.3801,0.3836,0.3856,0.3829,0.3865,0.3866,0.3821,0.3826,0.3708,0.3692,0.3869,0.3869,0.3869,0.3804,0,0.3578,0.3537,0.3567,0.3509,0.3482,0.3526,0.3546,0.3587,0.3627,0.3642,0.372,0.3737,0.3778,0.3789,0.3814,0.3817,0.3821,0.3841,0.3844,0.3843,0.3724,0.3684,0.358,0.3503,0.38,0.38,0.3799,0,0.3505,0.349,0.3439,0.3427,0.342,0.3414,0.3445,0.3469,0.3545,0.3579,0.364,0.3686,0.373,0.3754,0.3784,0.3799,0.3795,0.3804,0.3803,0.3693,0.3716,0.3555,0.3485,0.3454,0.3793,0.3793,0.3794,0,0.3426,0.3384,0.3346,0.333,0.3346,0.3351,0.3371,0.3442,0.347,0.3542,0.3562,0.3634,0.3659,0.3693,0.373,0.3751,0.3736,0.3775,0.3666,0.3657,0.3564,0.3546,0.3446,0.3767,0.3767,0.3767,0.3767,0,0.3326,0.3274,0.3304,0.3271,0.3244,0.3286,0.328,0.3331,0.3386,0.3405,0.3522,0.3546,0.3644,0.3671,0.3698,0.3655,0.372,0.3626,0.3625,0.355,0.3533,0.3499,0.3491,0.3765,0.3765,0.3766,0.3766,0,0.322,0.3232,0.3199,0.3211,0.3209,0.3203,0.3226,0.322,0.3303,0.3329,0.3356,0.3465,0.3495,0.3576,0.3604,0.3589,0.3474,0.3552,0.3432,0.3416,0.324,0.3234,0.2952,0.2871,0.3384,0.3381,0.3378,0,0.3152,0.3128,0.3154,0.3138,0.3134,0.3125,0.311,0.3178,0.3178,0.3277,0.3271,0.3336,0.3372,0.3375,0.3366,0.3361,0.3336,0.3224,0.3231,0.3171,0.3168,0.3059,0.3007,0.3103,0.3098,0.3094,0.3091,0,0.3023,0.3061,0.3047,0.3031,0.3015,0.2988,0.2974,0.2972,0.3049,0.3071,0.3086,0.313,0.3173,0.3121,0.3127,0.3119,0.3062,0.3134,0.3126,0.2949,0.2772,0.2716,0.3194,0.3055,0.3059,0.3061,0.3063,0.3065,0.2932,0.2917,0.2923,0.2884,0.287,0.2819,0.2752,0.2759,0.2743,0.2745,0.2864,0.2873,0.2935,0.2928,0.2892,0.278,0.2779,0.2724,0.2724,0.2621,0.251,0.2864,0.2697,0.2699,0.27,0.2701,0.2702,0,0.2782,0.2774,0.2746,0.2695,0.26,0.265,0.261,0.2532,0.2452,0.2539,0.2535,0.2586,0.2566,0.2614,0.2558,0.2442,0.2348,0.2373,0.2257,0.2233,0.261,0.2572,0.2305,0.2305,0.2305,0.2305,0.2305,0.2305,0.2701,0.2625,0.2608,0.2414,0.2362,0.2218,0.217,0.2125,0.2157,0.2133,0.2156,0.2236,0.2401,0.24,0.231,0.2245,0.2116,0.1949,0.1969,0.234,0.2376,0.241,0.2374,0.207,0.207,0.1525,0.1521,0.1518]},{"header":{"parameterUnit":"m.s-1","parameterCategory":2,"la1":30.2991,"la2":30.254,"lo1":-89.0895,"lo2":-89.0444,"dy":0.0017,"dx":0.0017,"nx":28,"ny":28,"refTime":"2023-10-07T03:00:00:Z","depth":"0","parameterNumber":3,"parameterNumberName":"V-component_of_CURRENTS"},"data":[0,0,0,0,0,0,0,0,0,0,0,0,0,0,0,0,0,0,0,0,0,0,0,0,0,0,0,0,0,0,0,0,0,0,0,0,0,0,0,0,0,0,0,0,0,0,0,0,0,0,0,0,0,0,0,0,0,0,-0.0728,-0.0728,0,-0.0734,-0.0734,-0.0734,-0.0795,-0.0797,-0.0798,-0.08,-0.0859,-0.0859,-0.0859,0,0,0,0,0,0,0,0,0,0,0,0,0,-0.071,-0.0711,-0.0728,-0.0728,-0.0728,-0.0734,-0.0734,-0.0734,-0.0795,-0.0797,-0.0799,-0.08,-0.0859,-0.0859,-0.0859,0,0,0,0,0,0,0,0,0,0,0,0,0,-0.0718,-0.0711,-0.0728,-0.0758,-0.0761,-0.0734,-0.0734,-0.0734,-0.0795,-0.0797,-0.0799,-0.0801,-0.0859,-0.0859,-0.0859,-0.0818,0,0,-0.086,-0.0861,0,0,0,0,0,0,0,0,-0.0718,-0.0719,-0.0754,-0.0756,-0.0759,-0.0765,-0.0749,-0.0764,-0.0794,-0.0783,-0.08,-0.0802,-0.083,-0.0833,-0.083,-0.082,-0.0823,-0.086,-0.0861,-0.0861,-0.0861,0,0,0,0,0,0,0,-0.0717,-0.0718,-0.0731,-0.0754,-0.0757,-0.0751,-0.0755,-0.0752,-0.0796,-0.0784,-0.0788,-0.0787,-0.0833,-0.0829,-0.0832,-0.0824,-0.086,-0.0861,-0.0861,-0.0861,-0.0851,-0.0851,0,0,0,0,0,0,-0.0715,-0.0718,-0.0731,-0.0731,-0.0742,-0.075,-0.0755,-0.0762,-0.0795,-0.0801,-0.0785,-0.0789,-0.0828,-0.0831,-0.0834,-0.0816,-0.0861,-0.0861,-0.0861,-0.0852,-0.0851,-0.0851,0,0,0,0,0,0,-0.0715,-0.0717,-0.0731,-0.0724,-0.0725,-0.0748,-0.0755,-0.0761,-0.0757,-0.0795,-0.0803,-0.0776,-0.083,-0.0834,-0.0805,-0.0818,-0.0861,-0.0862,-0.0852,-0.0851,-0.0851,-0.0761,0,0,0,0,0,0,-0.0715,-0.0717,-0.0719,-0.0724,-0.0725,-0.0687,-0.0753,-0.0759,-0.0752,-0.0758,-0.0789,-0.0797,-0.0832,-0.0803,-0.0805,-0.0819,-0.0862,-0.0853,-0.0852,-0.0851,-0.0764,-0.0757,-0.0751,0,0,0,0,0,-0.0714,-0.0703,-0.0719,-0.072,-0.0729,-0.0685,-0.0683,-0.0709,-0.0749,-0.0719,-0.0742,-0.0796,-0.0802,-0.08,-0.0803,-0.0818,-0.0853,-0.0852,-0.0851,-0.0767,-0.0758,-0.0751,0,0,0,0,0,0,-0.0691,-0.0708,-0.0726,-0.0721,-0.0693,-0.0694,-0.0678,-0.0694,-0.0689,-0.0706,-0.0753,-0.0759,-0.0751,-0.0783,-0.0781,-0.0817,-0.0852,-0.0851,-0.0787,-0.0779,-0.0773,-0.0734,-0.0862,0,0,0,0,0,-0.0687,-0.0683,-0.0683,-0.0668,-0.066,-0.0666,-0.0656,-0.0665,-0.0663,-0.0665,-0.0685,-0.0722,-0.0746,-0.0758,-0.0772,-0.0762,-0.0755,-0.0787,-0.078,-0.0774,-0.0746,-0.074,-0.0729,-0.0847,-0.0847,-0.0847,0,0,-0.0663,-0.0678,-0.067,-0.0661,-0.0654,-0.062,-0.0665,-0.0634,-0.0616,-0.067,-0.0649,-0.068,-0.0733,-0.0733,-0.0737,-0.0763,-0.0732,-0.0773,-0.0767,-0.0741,-0.0737,-0.0725,-0.0715,-0.0846,-0.0847,-0.0847,0,0,-0.0596,-0.0634,-0.0598,-0.0579,-0.0562,-0.0573,-0.0559,-0.0549,-0.056,-0.0528,-0.0586,-0.0601,-0.0626,-0.0665,-0.0695,-0.0653,-0.0687,-0.069,-0.0631,-0.0626,-0.0615,-0.0606,-0.055,-0.0537,-0.0699,-0.0698,-0.0698,0,-0.0568,-0.054,-0.057,-0.0529,-0.0513,-0.0549,-0.0495,-0.0503,-0.0483,-0.0479,-0.0512,-0.0545,-0.0597,-0.0609,-0.0614,-0.0638,-0.0619,-0.0656,-0.0613,-0.0605,-0.0596,-0.0542,-0.0529,-0.0694,-0.0695,-0.0695,-0.0695,0,-0.0466,-0.0448,-0.0421,-0.0402,-0.0385,-0.034,-0.036,-0.0348,-0.0383,-0.0393,-0.0389,-0.0437,-0.0459,-0.0506,-0.0551,-0.0539,-0.0534,-0.0594,-0.0626,-0.0578,-0.0525,-0.0512,-0.0688,-0.0689,-0.0691,-0.0692,0,0,-0.0386,-0.0357,-0.0343,-0.0322,-0.0319,-0.029,-0.0275,-0.0259,-0.0244,-0.0262,-0.0225,-0.0301,-0.0328,-0.0361,-0.0427,-0.0441,-0.0381,-0.0491,-0.0492,-0.0418,-0.0317,-0.033,-0.0317,-0.0432,-0.0431,-0.0429,-0.029,0,-0.029,-0.0205,-0.0216,-0.0137,-0.0105,-0.0142,-0.0119,-0.0121,-0.0143,-0.0116,-0.0186,-0.018,-0.0279,-0.0285,-0.0311,-0.0368,-0.0347,-0.0409,-0.0388,-0.0386,-0.0391,-0.0304,-0.0285,-0.0162,-0.0278,-0.0275,-0.0274,0,-0.0183,-0.0151,-0.006,-0.0031,-0.0017,0.0021,0.0033,0.0056,0.0051,0.0041,0.0029,-0.0016,-0.0038,-0.0128,-0.016,-0.0193,-0.0228,-0.0272,-0.0269,-0.03,-0.0376,-0.0238,-0.0135,-0.0219,-0.0255,-0.0256,-0.0258,0,-0.0122,-0.0044,0.0019,0.0036,0.0067,0.0098,0.0112,0.0111,0.014,0.0154,0.0186,0.0144,0.0139,0.0081,-0.0029,-0.0081,-0.0043,-0.0134,-0.0155,-0.0155,-0.0143,-0.0146,-0.0106,-0.011,-0.011,-0.0111,-0.0111,0,-0.0035,0.0022,0.0056,0.0094,0.0175,0.0169,0.0249,0.0251,0.0287,0.0352,0.0281,0.0326,0.0186,0.0169,0.0068,0.0014,0.0038,-0.0095,-0.0115,-0.011,-0.0111,-0.0193,-0.0278,-0.0105,-0.0107,-0.0108,-0.0109,0,0.0032,0.0054,0.0125,0.0177,0.0204,0.026,0.034,0.0397,0.0414,0.0506,0.0523,0.0485,0.0459,0.0346,0.0262,0.0147,0.0044,0.0065,0.0105,0.0086,-0.0052,-0.0133,-0.0103,-0.0136,0.0078,0.0079,0.0079,0,0.0076,0.0119,0.0191,0.0243,0.0278,0.0362,0.0427,0.0459,0.0526,0.0606,0.0666,0.0665,0.0684,0.0572,0.0375,0.0264,0.0126,0.0183,0.0061,-0.001,-0.0115,-0.0174,-0.0209,0.0138,0.0139,0.014,0.014,0,0.0157,0.0174,0.0235,0.0342,0.042,0.0507,0.0604,0.0674,0.0732,0.0815,0.0916,0.0945,0.0831,0.0705,0.0513,0.0392,0.0115,0.0193,0.0105,-0.0058,-0.0102,-0.016,0.0025,0.0147,0.0146,0.0146,0.0146,0.0145,0.022,0.0276,0.0354,0.046,0.0546,0.0654,0.0734,0.0839,0.0965,0.1095,0.1106,0.1185,0.0982,0.0712,0.0531,0.0213,0.0175,0.0101,0.0022,-0.0018,-0.0097,0.0126,0.0206,0.0206,0.0206,0.0206,0.0205,0,0.0314,0.0378,0.0475,0.0593,0.0691,0.0714,0.0857,0.0939,0.1095,0.1231,0.1327,0.1318,0.1055,0.0754,0.0321,0.0089,-0.0015,-0.0038,-0.0115,-0.0137,0.0071,0.0023,0.0084,0.0084,0.0084,0.0084,0.0084,0.0084,0.0373,0.0484,0.0531,0.0705,0.0777,0.0899,0.0973,0.1098,0.1219,0.1406,0.1495,0.154,0.1363,0.0562,0.0047,-0.0092,-0.0257,-0.0283,-0.0367,-0.0245,-0.0238,-0.0232,-0.0294,-0.0301,-0.0302,-0.0524,-0.0527,-0.0529]}],[{"header":{"parameterUnit":"m.s-1","parameterCategory":2,"la1":30.2991,"la2":30.254,"lo1":-89.0895,"lo2":-89.0444,"dy":0.0017,"dx":0.0017,"nx":28,"ny":28,"refTime":"2023-10-07T03:00:00:Z","depth":"2","parameterNumber":2,"parameterNumberName":"U-component_of_CURRENTS"},"data":[0,0,0,0,0,0,0,0,0,0,0,0,0,0,0,0,0,0,0,0,0,0,0,0,0,0,0,0,0,0,0,0,0,0,0,0,0,0,0,0,0,0,0,0,0,0,0,0,0,0,0,0,0,0,0,0,0,0,0.2072,0.2072,0,0.2044,0.2044,0.2044,0.2032,0.2032,0.2032,0.2032,0.1995,0.1995,0.1994,0,0,0,0,0,0,0,0,0,0,0,0,0,0.2046,0.2048,0.2073,0.2072,0.2071,0.2044,0.2044,0.2044,0.2032,0.2032,0.2032,0.2031,0.1996,0.1995,0.1994,0,0,0,0,0,0,0,0,0,0,0,0,0,0.2045,0.2048,0.2073,0.206,0.2058,0.2044,0.2044,0.2044,0.2032,0.2032,0.2032,0.2031,0.1996,0.1995,0.1994,0.1994,0,0,0.199,0.199,0,0,0,0,0,0,0,0,0.2045,0.2047,0.2062,0.2061,0.2059,0.2039,0.2021,0.2026,0.2032,0.2046,0.2032,0.2031,0.2007,0.2005,0.2005,0.1993,0.1991,0.199,0.199,0.1989,0.1989,0,0,0,0,0,0,0,0.2046,0.2047,0.2065,0.2062,0.2059,0.2031,0.2032,0.2022,0.2031,0.2044,0.2043,0.2034,0.2007,0.2007,0.2004,0.199,0.199,0.1989,0.1989,0.1988,0.2078,0.2081,0,0,0,0,0,0,0.2047,0.2048,0.2065,0.2063,0.2047,0.2032,0.2032,0.2048,0.2031,0.2028,0.2035,0.2034,0.2009,0.2006,0.2003,0.2052,0.1989,0.1988,0.1987,0.2075,0.2079,0.2082,0,0,0,0,0,0,0.2047,0.205,0.2067,0.2051,0.205,0.2033,0.205,0.2048,0.207,0.2024,0.202,0.2061,0.2008,0.2005,0.2057,0.2048,0.1988,0.1987,0.2071,0.2076,0.208,0.2117,0,0,0,0,0,0,0.2047,0.2051,0.2072,0.2052,0.2051,0.2079,0.205,0.2047,0.2062,0.2061,0.2045,0.204,0.2008,0.2059,0.2056,0.2045,0.1986,0.2068,0.2074,0.2079,0.2112,0.2122,0.2131,0,0,0,0,0,0.2046,0.206,0.2074,0.2076,0.208,0.208,0.2079,0.2065,0.2064,0.2083,0.2103,0.2041,0.2092,0.2062,0.2057,0.2045,0.2065,0.2072,0.2079,0.2108,0.212,0.2131,0,0,0,0,0,0,0.2061,0.2059,0.2074,0.2091,0.2101,0.2077,0.2084,0.2086,0.2114,0.2124,0.2091,0.209,0.2124,0.2108,0.2076,0.2098,0.2063,0.2069,0.2087,0.2099,0.2108,0.2092,0.1985,0,0,0,0,0,0.2077,0.208,0.2093,0.2103,0.2118,0.2115,0.2117,0.2118,0.2129,0.2141,0.2137,0.2142,0.2145,0.2145,0.2149,0.2168,0.2162,0.216,0.217,0.2177,0.2169,0.22,0.221,0.2105,0.2105,0.2104,0,0,0.2082,0.2079,0.2083,0.2105,0.2112,0.2126,0.2117,0.2133,0.214,0.2133,0.2163,0.2179,0.2166,0.2188,0.2199,0.2172,0.221,0.2186,0.2192,0.2179,0.2208,0.2218,0.2227,0.2109,0.2108,0.2108,0,0,0.2078,0.2104,0.2114,0.213,0.2149,0.2146,0.2163,0.218,0.2191,0.2232,0.2228,0.2274,0.2264,0.2266,0.2258,0.2335,0.2268,0.2316,0.2332,0.2364,0.2371,0.2378,0.2392,0.2399,0.231,0.231,0.231,0,0.2089,0.21,0.2117,0.2136,0.2133,0.2161,0.2174,0.2193,0.2225,0.2243,0.225,0.2285,0.2298,0.2304,0.2338,0.2348,0.2344,0.2276,0.2371,0.2378,0.2383,0.2396,0.2404,0.2313,0.2312,0.2312,0.2312,0,0.2097,0.2114,0.212,0.2145,0.2156,0.2168,0.2195,0.2227,0.2246,0.2268,0.231,0.2344,0.2363,0.237,0.2373,0.241,0.2388,0.2383,0.2327,0.2395,0.2406,0.2413,0.2316,0.2315,0.2315,0.2314,0,0,0.2095,0.2118,0.2123,0.2129,0.2158,0.2163,0.2189,0.2218,0.2245,0.2289,0.2315,0.2359,0.2396,0.2395,0.2404,0.243,0.2498,0.2422,0.2422,0.241,0.2546,0.2478,0.2479,0.2494,0.2495,0.2496,0.2537,0,0.2096,0.2102,0.2118,0.2126,0.2131,0.2159,0.218,0.2219,0.2253,0.2303,0.2341,0.2388,0.2393,0.2419,0.2449,0.2495,0.2517,0.2486,0.2504,0.2504,0.2415,0.2486,0.2294,0.2309,0.2544,0.2545,0.2546,0,0.2093,0.2093,0.2092,0.2103,0.2116,0.2133,0.2157,0.219,0.2268,0.2305,0.235,0.2393,0.2459,0.2458,0.2529,0.2501,0.253,0.255,0.2552,0.2474,0.245,0.2282,0.2313,0.2557,0.2556,0.2555,0.2555,0,0.2039,0.2066,0.2047,0.2055,0.2092,0.2103,0.2133,0.2198,0.2237,0.2322,0.2369,0.2425,0.2481,0.2514,0.258,0.256,0.2644,0.2628,0.2578,0.2573,0.2406,0.2384,0.267,0.267,0.2669,0.2669,0.2669,0,0.1994,0.1997,0.203,0.2026,0.2047,0.2084,0.2127,0.2171,0.2247,0.2304,0.2384,0.2422,0.2501,0.2558,0.2589,0.2608,0.2658,0.2587,0.2584,0.2417,0.2396,0.2604,0.2596,0.2671,0.2671,0.267,0.267,0,0.1935,0.1952,0.1958,0.1999,0.2019,0.2044,0.2127,0.2159,0.2246,0.2313,0.2348,0.2449,0.2523,0.2577,0.2651,0.2627,0.2653,0.2642,0.2434,0.2406,0.2553,0.2547,0.2586,0.2584,0.2583,0.2581,0.258,0,0.1895,0.1883,0.1936,0.1952,0.1977,0.2028,0.2061,0.2149,0.2181,0.2315,0.2334,0.2443,0.2487,0.2566,0.2561,0.258,0.2633,0.2389,0.2323,0.2554,0.2548,0.2544,0.254,0.2124,0.2119,0.2115,0.2112,0,0.1831,0.186,0.1869,0.1904,0.1936,0.1978,0.2029,0.205,0.215,0.2209,0.2277,0.2331,0.2418,0.2351,0.2383,0.2363,0.237,0.2308,0.2616,0.2174,0.2121,0.2114,0.2125,0.2077,0.2081,0.2083,0.2085,0.2087,0.1797,0.18,0.1818,0.1841,0.1879,0.19,0.1897,0.1946,0.1987,0.2037,0.2145,0.2161,0.2193,0.2147,0.2087,0.204,0.2203,0.2088,0.2099,0.2115,0.2053,0.2,0.1921,0.1924,0.1926,0.1928,0.193,0,0.173,0.175,0.1756,0.1775,0.1767,0.1826,0.1845,0.1816,0.1811,0.1888,0.1933,0.18,0.1768,0.1802,0.1686,0.168,0.1653,0.1596,0.1546,0.1583,0.1615,0.1526,0.1256,0.1254,0.1251,0.1249,0,0,0.1708,0.1695,0.1685,0.1647,0.1661,0.1623,0.1611,0.1587,0.1605,0.1582,0.1578,0.1716,0.1767,0.15,0.1462,0.1337,0.1445,0.128,0.1827,0.1807,0.1836,0.1913,0.182,0,0,0,0,0]},{"header":{"parameterUnit":"m.s-1","parameterCategory":2,"la1":30.2991,"la2":30.254,"lo1":-89.0895,"lo2":-89.0444,"dy":0.0017,"dx":0.0017,"nx":28,"ny":28,"refTime":"2023-10-07T03:00:00:Z","depth":"2","parameterNumber":3,"parameterNumberName":"V-component_of_CURRENTS"},"data":[0,0,0,0,0,0,0,0,0,0,0,0,0,0,0,0,0,0,0,0,0,0,0,0,0,0,0,0,0,0,0,0,0,0,0,0,0,0,0,0,0,0,0,0,0,0,0,0,0,0,0,0,0,0,0,0,0,0,0.038,0.0379,0,0.0343,0.0343,0.0342,0.0329,0.0329,0.033,0.033,0.0344,0.0344,0.0344,0,0,0,0,0,0,0,0,0,0,0,0,0,0.0332,0.0334,0.038,0.0379,0.0379,0.0344,0.0343,0.0342,0.0329,0.0329,0.033,0.033,0.0344,0.0344,0.0344,0,0,0,0,0,0,0,0,0,0,0,0,0,0.0327,0.0334,0.038,0.0371,0.037,0.0344,0.0343,0.0342,0.0329,0.0329,0.033,0.033,0.0344,0.0344,0.0344,0.0331,0,0,0.0344,0.0344,0,0,0,0,0,0,0,0,0.0328,0.0329,0.0372,0.0371,0.037,0.0344,0.0331,0.0342,0.0328,0.0341,0.033,0.0331,0.0351,0.035,0.0336,0.0332,0.0333,0.0344,0.0344,0.0344,0.0344,0,0,0,0,0,0,0,0.0328,0.033,0.0362,0.0372,0.0371,0.0333,0.0334,0.0332,0.0341,0.034,0.034,0.0341,0.035,0.0336,0.0337,0.0333,0.0344,0.0344,0.0344,0.0344,0.0317,0.0316,0,0,0,0,0,0,0.0345,0.0331,0.0363,0.0361,0.0354,0.0334,0.0334,0.0349,0.034,0.034,0.034,0.034,0.0336,0.0337,0.0337,0.0337,0.0344,0.0344,0.0344,0.0318,0.0317,0.0316,0,0,0,0,0,0,0.0344,0.0348,0.0365,0.0346,0.0347,0.0335,0.0351,0.0348,0.0327,0.034,0.034,0.0322,0.0337,0.0338,0.0308,0.0338,0.0344,0.0344,0.0318,0.0317,0.0316,0.0328,0,0,0,0,0,0,0.0343,0.0349,0.0356,0.0348,0.0348,0.0358,0.0351,0.0347,0.0329,0.0329,0.0325,0.0327,0.0337,0.0307,0.0308,0.0338,0.0344,0.0319,0.0318,0.0317,0.0328,0.0327,0.0326,0,0,0,0,0,0.0342,0.0361,0.0357,0.0361,0.0363,0.0359,0.0354,0.0345,0.0328,0.0325,0.0296,0.0327,0.0301,0.0305,0.0306,0.0337,0.032,0.0318,0.0317,0.0329,0.0327,0.0326,0,0,0,0,0,0,0.0348,0.0362,0.0357,0.0381,0.0371,0.0358,0.0351,0.0336,0.0307,0.0298,0.0299,0.0299,0.0293,0.0296,0.0301,0.0322,0.0324,0.0322,0.0333,0.0331,0.033,0.0354,0.0344,0,0,0,0,0,0.0352,0.0375,0.0368,0.0388,0.0377,0.0355,0.0347,0.0338,0.0317,0.0304,0.0301,0.0292,0.0287,0.029,0.0288,0.0286,0.0278,0.031,0.0309,0.0308,0.0326,0.0298,0.0296,0.0311,0.0311,0.0311,0,0,0.036,0.0373,0.0383,0.039,0.0375,0.0372,0.0351,0.0338,0.0341,0.0311,0.0304,0.0285,0.028,0.0283,0.0284,0.029,0.0298,0.0306,0.0306,0.0324,0.0296,0.0295,0.0293,0.031,0.031,0.031,0,0,0.0382,0.0392,0.0403,0.04,0.0385,0.0377,0.037,0.0347,0.034,0.0322,0.0302,0.028,0.0285,0.0282,0.0282,0.0268,0.0287,0.0284,0.0309,0.0281,0.028,0.0279,0.0262,0.0259,0.0291,0.0291,0.0291,0,0.0381,0.0408,0.0404,0.0408,0.041,0.0379,0.0379,0.0369,0.0344,0.0337,0.0329,0.0305,0.029,0.0292,0.0287,0.0272,0.0261,0.0317,0.0281,0.028,0.0279,0.0262,0.0259,0.0291,0.0291,0.0291,0.0291,0,0.041,0.0421,0.0424,0.043,0.043,0.0427,0.0415,0.0409,0.0392,0.0381,0.0371,0.0337,0.0328,0.0324,0.0302,0.0298,0.0293,0.0278,0.0289,0.0279,0.026,0.0257,0.0292,0.0291,0.0291,0.0291,0,0,0.0417,0.0439,0.0437,0.0444,0.044,0.0444,0.045,0.0445,0.0449,0.0429,0.0435,0.0406,0.038,0.0376,0.035,0.0328,0.0293,0.0305,0.0304,0.0298,0.0241,0.0231,0.0226,0.0272,0.0272,0.0271,0.0229,0,0.0426,0.0457,0.0463,0.0481,0.0484,0.0477,0.0494,0.049,0.0481,0.048,0.0448,0.044,0.0405,0.0396,0.0366,0.0312,0.0287,0.0307,0.0245,0.0243,0.0243,0.0223,0.023,0.0193,0.0226,0.0226,0.0225,0,0.0438,0.046,0.0487,0.0512,0.0511,0.0523,0.0543,0.0555,0.0547,0.054,0.0525,0.0496,0.0462,0.043,0.0352,0.0369,0.0308,0.0267,0.0264,0.0255,0.0228,0.0208,0.0186,0.022,0.022,0.0221,0.0221,0,0.0454,0.0472,0.0503,0.0511,0.0536,0.0547,0.056,0.0567,0.0588,0.0575,0.0586,0.0538,0.0522,0.0447,0.0357,0.0351,0.0274,0.0248,0.0188,0.0187,0.0183,0.0182,0.0192,0.0192,0.0192,0.0192,0.0192,0,0.0469,0.0483,0.0512,0.0531,0.0565,0.057,0.0608,0.0614,0.0633,0.0666,0.0616,0.0634,0.0525,0.0469,0.0377,0.0281,0.0284,0.0197,0.0175,0.0185,0.0185,0.0204,0.0206,0.019,0.0191,0.0191,0.0191,0,0.0477,0.0497,0.053,0.0564,0.0576,0.0603,0.0653,0.0683,0.0691,0.0737,0.0738,0.0701,0.0631,0.0524,0.04,0.0314,0.0215,0.0177,0.0204,0.0185,0.0141,0.0144,0.0104,0.0104,0.0103,0.0103,0.0102,0,0.0487,0.0507,0.0564,0.0593,0.0607,0.0648,0.0686,0.0713,0.0754,0.0788,0.0816,0.0762,0.0742,0.0564,0.0399,0.0242,0.0219,0.0137,0.0118,0.015,0.0132,0.0136,0.0139,0.0113,0.0112,0.0112,0.0112,0,0.05,0.0523,0.0564,0.063,0.0672,0.0727,0.078,0.0823,0.0866,0.0906,0.0945,0.0929,0.077,0.0612,0.0392,0.0279,0.0161,0.0127,0.0148,0.0137,0.0155,0.0138,0.0142,0.011,0.011,0.011,0.011,0.011,0.0515,0.0547,0.0609,0.0666,0.0723,0.0792,0.0842,0.0909,0.0985,0.1047,0.1036,0.1018,0.0839,0.0561,0.0362,0.0146,0.0163,0.0078,0.008,0.0082,0.0093,0.0109,0.0059,0.0058,0.0058,0.0058,0.0058,0,0.0539,0.0576,0.0636,0.0711,0.0773,0.0801,0.0898,0.0952,0.1043,0.1105,0.1139,0.0969,0.0794,0.0582,0.027,0.0088,0.0067,0.0017,0.0036,0.004,0.0043,0.0053,0.0007,0.0006,0.0005,0.0005,0,0,0.0553,0.0608,0.0638,0.0731,0.0784,0.0869,0.0925,0.1012,0.108,0.1138,0.1137,0.1118,0.0868,0.0632,0.0379,0.0194,0.0155,0.0149,0.0211,0.0267,0.0272,0.0099,0.0121,0,0,0,0,0]}],[{"header":{"parameterUnit":"m.s-1","parameterCategory":2,"la1":30.2991,"la2":30.254,"lo1":-89.0895,"lo2":-89.0444,"dy":0.0017,"dx":0.0017,"nx":28,"ny":28,"refTime":"2023-10-07T03:00:00:Z","depth":"4","parameterNumber":2,"parameterNumberName":"U-component_of_CURRENTS"},"data":[0,0,0,0,0,0,0,0,0,0,0,0,0,0,0,0,0,0,0,0,0,0,0,0,0,0,0,0,0,0,0,0,0,0,0,0,0,0,0,0,0,0,0,0,0,0,0,0,0,0,0,0,0,0,0,0,0,0,0.1011,0.1011,0,0.1043,0.1043,0.1044,0.1054,0.1054,0.1054,0.1054,0.1078,0.1079,0.108,0,0,0,0,0,0,0,0,0,0,0,0,0,0.0935,0.0936,0.1011,0.1011,0.1012,0.1043,0.1043,0.1044,0.1054,0.1054,0.1054,0.1054,0.1078,0.1079,0.108,0,0,0,0,0,0,0,0,0,0,0,0,0,0.0967,0.0937,0.1011,0.1021,0.1023,0.1043,0.1043,0.1044,0.1055,0.1054,0.1054,0.1054,0.1078,0.1079,0.108,0.1089,0,0,0.1083,0.1084,0,0,0,0,0,0,0,0,0.0965,0.097,0.1019,0.1021,0.1022,0.1045,0.1025,0.1059,0.1055,0.1042,0.1054,0.1054,0.1067,0.1069,0.1074,0.109,0.1091,0.1083,0.1084,0.1084,0.1085,0,0,0,0,0,0,0,0.0963,0.0968,0.1023,0.102,0.1021,0.1016,0.1021,0.1032,0.1054,0.1043,0.1044,0.1048,0.1068,0.1073,0.1075,0.1091,0.1083,0.1084,0.1085,0.1085,0.1185,0.1187,0,0,0,0,0,0,0.0962,0.0966,0.1022,0.1024,0.0993,0.1018,0.1023,0.1037,0.1054,0.1057,0.1049,0.1049,0.1072,0.1074,0.1076,0.1143,0.1084,0.1085,0.1086,0.1183,0.1186,0.1188,0,0,0,0,0,0,0.096,0.0967,0.102,0.0995,0.1002,0.102,0.1035,0.1038,0.107,0.1059,0.1061,0.108,0.1072,0.1074,0.1123,0.1142,0.1086,0.1087,0.1181,0.1184,0.1187,0.1242,0,0,0,0,0,0,0.0958,0.0966,0.0995,0.0996,0.1003,0.1055,0.1036,0.1039,0.1071,0.1073,0.1086,0.1087,0.1072,0.1122,0.1124,0.1142,0.1088,0.1178,0.1182,0.1186,0.1238,0.1247,0.1254,0,0,0,0,0,0.0955,0.0985,0.0996,0.1004,0.1036,0.1057,0.1061,0.1071,0.1073,0.1098,0.1115,0.1088,0.1147,0.1125,0.1127,0.1146,0.1176,0.1181,0.1185,0.1234,0.1245,0.1254,0,0,0,0,0,0,0.097,0.099,0.1001,0.1038,0.1059,0.1059,0.1084,0.1091,0.1124,0.1134,0.112,0.1124,0.1169,0.1161,0.1137,0.1189,0.1154,0.1159,0.119,0.1201,0.1209,0.1208,0.1088,0,0,0,0,0,0.0987,0.1017,0.1031,0.1066,0.1077,0.1089,0.1105,0.1115,0.1133,0.1148,0.116,0.1174,0.1186,0.1198,0.1211,0.1245,0.1247,0.1258,0.1267,0.1274,0.1277,0.1305,0.1316,0.1203,0.1203,0.1203,0,0,0.1003,0.1019,0.1037,0.1073,0.1087,0.1108,0.1099,0.1134,0.1156,0.1146,0.1196,0.1209,0.1205,0.1241,0.1259,0.1238,0.1312,0.1279,0.1285,0.1285,0.1311,0.1322,0.1331,0.1206,0.1205,0.1205,0,0,0.1029,0.1064,0.1089,0.1109,0.1142,0.1149,0.1166,0.1191,0.121,0.1261,0.1253,0.1286,0.1316,0.131,0.1308,0.1374,0.1358,0.1382,0.1418,0.1446,0.1455,0.1463,0.1496,0.1507,0.1382,0.1382,0.1382,0,0.1051,0.1081,0.1102,0.1126,0.1144,0.1169,0.1192,0.1215,0.1259,0.1279,0.1289,0.1341,0.1341,0.1361,0.1387,0.1388,0.1411,0.1375,0.1455,0.1463,0.147,0.1502,0.1513,0.1385,0.1385,0.1384,0.1384,0,0.1076,0.1115,0.1132,0.1168,0.1194,0.1224,0.1248,0.1291,0.1321,0.134,0.1395,0.141,0.1435,0.1442,0.1435,0.1482,0.1486,0.1463,0.1424,0.1484,0.1515,0.1525,0.139,0.1388,0.1387,0.1387,0,0,0.1088,0.1138,0.115,0.1171,0.1219,0.1238,0.1284,0.1324,0.1358,0.1411,0.1453,0.1483,0.1503,0.1504,0.1503,0.1529,0.1604,0.1529,0.1529,0.1554,0.1687,0.1574,0.1574,0.1603,0.1605,0.1606,0.1694,0,0.1104,0.1145,0.1172,0.1221,0.1239,0.1279,0.1316,0.1362,0.1406,0.1461,0.1483,0.1529,0.152,0.1548,0.1574,0.1596,0.1632,0.1584,0.1633,0.1634,0.1519,0.1582,0.1612,0.1701,0.1703,0.1705,0.1706,0,0.1113,0.1141,0.1181,0.1237,0.1251,0.1291,0.1355,0.1395,0.1465,0.1503,0.1554,0.1581,0.1631,0.1619,0.1686,0.1663,0.1689,0.1702,0.1705,0.1583,0.1539,0.1626,0.1724,0.1723,0.1721,0.172,0.1719,0,0.1082,0.1149,0.1178,0.1198,0.1263,0.1301,0.1348,0.1416,0.1459,0.1543,0.1591,0.1642,0.169,0.1724,0.176,0.174,0.1835,0.1798,0.1722,0.1715,0.1764,0.1754,0.1856,0.1856,0.1856,0.1856,0.1855,0,0.1068,0.1103,0.1175,0.1191,0.1245,0.1298,0.1366,0.1419,0.1504,0.1556,0.1618,0.1663,0.1726,0.178,0.1795,0.1791,0.1864,0.1741,0.173,0.1789,0.1781,0.1772,0.1761,0.1859,0.1858,0.1857,0.1857,0,0.1027,0.1071,0.1112,0.1193,0.1228,0.127,0.1381,0.1427,0.1514,0.1587,0.1623,0.1713,0.1773,0.1822,0.1886,0.1828,0.1837,0.1822,0.1907,0.1897,0.1693,0.1685,0.1734,0.1731,0.1728,0.1726,0.1724,0,0.1001,0.1019,0.1107,0.1141,0.1188,0.1266,0.132,0.1421,0.147,0.1598,0.1623,0.1727,0.1771,0.1772,0.1824,0.1843,0.1819,0.1812,0.1725,0.1697,0.1681,0.1677,0.1672,0.1719,0.1718,0.1718,0.1717,0,0.0959,0.1001,0.1039,0.1108,0.1172,0.1229,0.1317,0.1341,0.1452,0.1547,0.1587,0.1614,0.168,0.1706,0.1742,0.1746,0.1799,0.1782,0.1787,0.1705,0.1679,0.1666,0.1665,0.1707,0.1709,0.171,0.171,0,0.0935,0.0953,0.1013,0.1069,0.1141,0.1172,0.1221,0.1281,0.1337,0.1469,0.1482,0.1579,0.1671,0.1659,0.1689,0.1685,0.1646,0.1574,0.1588,0.16,0.151,0.1454,0.1414,0,0,0,0,0,0.0901,0.0923,0.0972,0.102,0.1088,0.113,0.1213,0.126,0.1363,0.1357,0.1413,0.1464,0.1493,0.1543,0.1511,0.1627,0.1655,0.1581,0.158,0.1654,0.1665,0.1569,0,0,0,0,0,0,0.0879,0.0926,0.0949,0.0975,0.1,0.1062,0.1107,0.1172,0.1169,0.1275,0.1301,0.1378,0.1434,0.1507,0.1487,0.1502,0.1469,0.1644,0.164,0.1648,0.1658,0.1667,0.1572,0,0,0,0,0]},{"header":{"parameterUnit":"m.s-1","parameterCategory":2,"la1":30.2991,"la2":30.254,"lo1":-89.0895,"lo2":-89.0444,"dy":0.0017,"dx":0.0017,"nx":28,"ny":28,"refTime":"2023-10-07T03:00:00:Z","depth":"4","parameterNumber":3,"parameterNumberName":"V-component_of_CURRENTS"},"data":[0,0,0,0,0,0,0,0,0,0,0,0,0,0,0,0,0,0,0,0,0,0,0,0,0,0,0,0,0,0,0,0,0,0,0,0,0,0,0,0,0,0,0,0,0,0,0,0,0,0,0,0,0,0,0,0,0,0,0.046,0.046,0,0.0447,0.0446,0.0446,0.0429,0.0429,0.0429,0.0429,0.0418,0.0418,0.0418,0,0,0,0,0,0,0,0,0,0,0,0,0,0.0432,0.0433,0.046,0.046,0.046,0.0447,0.0446,0.0446,0.0429,0.0429,0.0429,0.0429,0.0418,0.0418,0.0418,0,0,0,0,0,0,0,0,0,0,0,0,0,0.0432,0.0433,0.046,0.0451,0.0451,0.0447,0.0446,0.0446,0.0429,0.0429,0.0429,0.0429,0.0418,0.0418,0.0418,0.0419,0,0,0.0417,0.0417,0,0,0,0,0,0,0,0,0.0432,0.0433,0.0453,0.0452,0.0451,0.0441,0.0432,0.0438,0.0429,0.0435,0.0429,0.0429,0.0427,0.0426,0.0421,0.0419,0.0418,0.0417,0.0417,0.0416,0.0416,0,0,0,0,0,0,0,0.0432,0.0433,0.0453,0.0453,0.0452,0.0435,0.0435,0.0433,0.0431,0.0435,0.0434,0.0436,0.0427,0.0422,0.0421,0.0418,0.0417,0.0417,0.0416,0.0416,0.0418,0.0419,0,0,0,0,0,0,0.044,0.0434,0.0453,0.0453,0.0443,0.0436,0.0436,0.0443,0.0431,0.043,0.0436,0.0435,0.0422,0.0422,0.0421,0.0428,0.0416,0.0416,0.0416,0.0418,0.0419,0.0419,0,0,0,0,0,0,0.044,0.0442,0.0454,0.0444,0.0444,0.0437,0.0445,0.0443,0.0441,0.0432,0.043,0.0437,0.0422,0.0421,0.0411,0.0427,0.0416,0.0416,0.0418,0.0418,0.0419,0.0438,0,0,0,0,0,0,0.0439,0.0442,0.0453,0.0445,0.0445,0.0456,0.0445,0.0443,0.0443,0.0442,0.0432,0.0431,0.0422,0.0411,0.0411,0.0427,0.0416,0.0418,0.0418,0.0419,0.0437,0.0439,0.0441,0,0,0,0,0,0.0438,0.0453,0.0454,0.0456,0.046,0.0456,0.0455,0.0447,0.0443,0.0445,0.0429,0.0431,0.0414,0.0411,0.041,0.0426,0.0417,0.0418,0.0419,0.0436,0.0439,0.0441,0,0,0,0,0,0,0.0446,0.0452,0.0453,0.047,0.0466,0.0454,0.0457,0.0451,0.0441,0.0439,0.0427,0.0424,0.0423,0.042,0.0416,0.0428,0.042,0.042,0.0434,0.0436,0.0438,0.0436,0.0415,0,0,0,0,0,0.0455,0.0466,0.0465,0.0477,0.0478,0.0469,0.0468,0.0462,0.0451,0.0446,0.0437,0.043,0.0425,0.0425,0.0418,0.0423,0.0401,0.0435,0.0437,0.0438,0.0436,0.0409,0.0408,0.042,0.042,0.042,0,0,0.0458,0.0465,0.047,0.0479,0.0476,0.0475,0.0467,0.0468,0.0467,0.0448,0.0443,0.0433,0.0425,0.0426,0.0427,0.0426,0.0422,0.0439,0.044,0.0438,0.041,0.0408,0.0407,0.0421,0.0421,0.0421,0,0,0.0466,0.0481,0.0489,0.0489,0.0491,0.0484,0.0487,0.0478,0.0476,0.0468,0.0456,0.0451,0.0444,0.0441,0.0439,0.0448,0.0429,0.0454,0.0466,0.044,0.0439,0.0437,0.0403,0.0398,0.0459,0.0459,0.0459,0,0.0471,0.0483,0.0489,0.0495,0.0497,0.049,0.0492,0.049,0.0477,0.0477,0.047,0.0455,0.0452,0.0453,0.0455,0.0453,0.0428,0.046,0.0442,0.044,0.0438,0.0403,0.0397,0.046,0.046,0.046,0.046,0,0.0478,0.049,0.0495,0.0501,0.0503,0.0504,0.0503,0.0506,0.0502,0.0494,0.0493,0.0479,0.0472,0.0477,0.0468,0.0463,0.0445,0.0443,0.0436,0.0438,0.0401,0.0395,0.0462,0.0461,0.0461,0.0461,0,0,0.0475,0.0496,0.0498,0.0507,0.0507,0.0511,0.0516,0.0517,0.0524,0.0512,0.0514,0.0506,0.0499,0.0496,0.049,0.0472,0.0438,0.0454,0.0452,0.0417,0.0367,0.0351,0.0342,0.0429,0.0428,0.0427,0.0344,0,0.0475,0.0496,0.0502,0.0514,0.0521,0.0524,0.0532,0.0534,0.0531,0.0531,0.0523,0.0521,0.0508,0.051,0.0487,0.0454,0.0423,0.046,0.0371,0.0368,0.0352,0.0335,0.0425,0.0339,0.0338,0.0337,0.0336,0,0.0472,0.049,0.0509,0.0532,0.0536,0.0542,0.0559,0.0567,0.0567,0.0566,0.0556,0.0542,0.0524,0.0511,0.0441,0.0462,0.0413,0.038,0.0376,0.035,0.0341,0.0338,0.0325,0.0326,0.0326,0.0327,0.0328,0,0.047,0.0492,0.0513,0.0518,0.0542,0.0556,0.0569,0.0576,0.0595,0.0589,0.0593,0.0558,0.0551,0.0485,0.0421,0.0425,0.0332,0.0332,0.0265,0.0263,0.0294,0.0297,0.0267,0.0267,0.0268,0.0268,0.0268,0,0.0465,0.0481,0.0518,0.053,0.0561,0.0571,0.0601,0.0611,0.0625,0.0645,0.0615,0.0614,0.0542,0.0485,0.0416,0.032,0.0325,0.0256,0.0239,0.0304,0.0308,0.0289,0.0293,0.0265,0.0265,0.0266,0.0266,0,0.0454,0.0479,0.0509,0.0547,0.0563,0.0588,0.0636,0.0656,0.0666,0.0689,0.0691,0.0652,0.0578,0.0493,0.0386,0.0321,0.0231,0.0193,0.026,0.0249,0.0175,0.0181,0.0103,0.0102,0.0101,0.01,0.0099,0,0.0452,0.0466,0.0529,0.0556,0.0576,0.0617,0.0649,0.0678,0.07,0.0712,0.0721,0.0662,0.0623,0.0457,0.0364,0.0215,0.0197,0.0137,0.0159,0.0167,0.0158,0.0165,0.0172,0.0098,0.0097,0.0097,0.0097,0,0.0441,0.047,0.0504,0.0564,0.0606,0.0654,0.0699,0.0718,0.075,0.0761,0.074,0.0661,0.0573,0.0452,0.0334,0.0232,0.0171,0.0125,0.0127,0.0147,0.0159,0.0153,0.0161,0.0093,0.0093,0.0094,0.0094,0,0.0441,0.0462,0.0514,0.0563,0.0622,0.067,0.0698,0.0723,0.075,0.0763,0.0752,0.0667,0.0622,0.046,0.0355,0.0248,0.0221,0.018,0.0178,0.0181,0.0232,0.0261,0.0202,0,0,0,0,0,0.0435,0.0458,0.0505,0.0564,0.0623,0.0658,0.0721,0.0744,0.0775,0.0763,0.0761,0.0681,0.0528,0.0464,0.0353,0.0325,0.0196,0.019,0.0145,0.0072,0.0076,0.0122,0,0,0,0,0,0,0.0432,0.0475,0.0496,0.0553,0.059,0.0655,0.0698,0.0723,0.0718,0.0734,0.0658,0.0634,0.0489,0.0587,0.0343,0.0313,0.0264,0.0126,0.0123,0.0069,0.0073,0.0077,0.0126,0,0,0,0,0]}]]